www.pogodaiklimat.ru

Погода и климат >> Архив погоды >> Пакистан >> Nawabshah


ПОГОДА в Nawabshah

  • Прогноз погоды в Nawabshah
  • Монитор погоды в Nawabshah
  • Климат города

АРХИВ ПОГОДЫ в Nawabshah

Время (UTC), дата Ветер
(напр.,м/с)
 
Видим.   Явления Облачность Т
(С)
Тd
(С)
f
(%)
Тe
(С)
Тes
(С)
Комфортность P
(гПа)
Po
(гПа)
Тmin
(С)
Tmax
(С)
R
(мм)
R24
(мм)
S
(см)
15 8.12 С 2 2000 м дым ясно +19.0 +3.0 34 +20 +20 1015.7 1016.0
18 8.12 штиль 0 4000 м дым ясно +16.0 +2.8 41 +16 +16 1017.4 1013.9
21 8.12 С 1 4000 м дым ясно +12.5 +4.9 60 +13 +13 1016.6 1017.0
00 9.12 штиль 0 2000 м дым ясно +9.0 +4.5 73 +8 +8 1016.1 1012.5
03 9.12 штиль 0 1000 м дым ясно +9.5 +3.8 68 +9 +10 1016.4 1012.8 +7.0
06 9.12 СВ 2 2000 м дым ясно +19.0 +4.5 38 +20 +28 1017.0 1013.6
09 9.12 4000 м дым ясно +26.0 +2.5 22 1013.4 1013.0
12 9.12 В 1 4000 м дым ясно +26.0 +4.2 25 +25 +26 комфорт 1011.6 1008.3 +27.5
15 9.12 штиль 0 4000 м дым ясно +20.0 +8.6 48 +21 +21 комфорт 1013.5 1000.0
18 9.12 СЗ 1 4000 м дым ясно +15.0 +8.1 63 +16 +16 1015.4 998.6
21 9.12 С 1 4000 м дым ясно +11.0 +6.8 75 +12 +12 1014.6 1000.0
00 10.12 0 н/о +9.2 0.0 53 +9 +9 1014.4 1000.0
03 10.12 СЗ 4 2000 м дым 9/4 1050 м
[Sc Ac trans]
+11.0 +6.8 75 +9 +9 1015.2 1011.6 +7.5
06 10.12 СЗ 2 2000 м дым 9/6 300 м
[Sc Ac trans]
+18.0 +8.3 53 +19 +20 1017.1 1013.6
09 10.12 СЗ 2 2000 м дым 9/6 300 м
[Sc Ac trans]
+24.0 +5.3 30 +24 +25 комфорт 1014.8 1011.0
12 10.12 СЗ 4 2000 м дым 9/4 900 м
[Sc Ac trans]
+22.0 +6.4 36 +23 +23 комфорт 1012.9 1009.5 +24.5
15 10.12 СЗ 4 2000 м дым 9/4 900 м
[Sc Ac trans]
+16.0 +8.1 59 +15 +15 1015.3 1015.0
18 10.12 С 3 2000 м дым 9/6 300 м
[Sc Ac trans]
+14.0 +8.0 67 +13 +13 1018.2 1014.7
21 10.12 С 2 2000 м дым 9/6 300 м
[Sc Ac trans]
+12.0 +7.9 76 +11 +11 1016.8 1013.4
00 11.12 СЗ 2 2000 м дым 6/4 300 м
[Sc Ac trans]
+10.0 +6.8 80 +8 +8 1016.2 1012.6
03 11.12 СЗ 2 4000 м дым 6/3 900 м
[Sc Ac trans]
+12.0 +7.9 76 +11 +11 1017.2 1013.6 +8.0
06 11.12 С 2 2000 м дым 3/0
[Ac trans]
+17.5 +8.9 57 +18 +25 1017.8 1014.3
09 11.12 С 2 4000 м дым ясно +24.0 +8.1 36 +24 +33 комфорт 1014.4 1010.9
12 11.12 ЮВ 2 4000 м дым ясно +22.0 +9.0 43 +23 +24 комфорт 1012.2 1008.9 +24.5
15 11.12 ЮВ 2 4000 м дым ясно +17.0 +7.0 52 +17 +17 1013.9 1014.0
18 11.12 С 1 4000 м дым ясно +13.5 +6.2 61 +14 +14 1015.6 1012.1
21 11.12 штиль 0 4000 м дым ясно +10.0 +5.7 75 +9 +9 1014.8 1015.0
00 12.12 штиль 0 1000 м дым ясно +7.5 +5.3 86 +7 +7 1014.3 1010.7
03 12.12 штиль 0 1000 м дым ясно +9.5 +5.1 74 +9 +10 1015.3 1011.7 +7.1
06 12.12 С 1 2000 м дым ясно +16.5 +8.8 60 +18 +28 1016.4 1012.9
09 12.12 С 2 4000 м дым ясно +25.0 +7.0 32 +25 +32 комфорт 1013.3 1013.0
12 12.12 СЗ 2 4000 м дым ясно +23.0 +6.6 35 +24 +24 комфорт 1012.8 1009.4 +26.0
15 12.12 штиль 0 4000 м дым ясно +17.0 +8.2 56 +17 +17 1015.0 1015.0
18 12.12 штиль 0 4000 м дым ясно +13.0 +6.8 66 +13 +13 1016.5 1012.9
21 12.12 СВ 2 4000 м дым ясно +9.0 +5.7 80 +7 +7 1015.6 1016.0
00 13.12 С 2 2000 м дым ясно +7.5 +5.3 86 +5 +5 1014.2 1010.6
03 13.12 СЗ 2 2000 м дым ясно +9.0 +4.5 73 +7 +8 1017.5 1013.9 +7.0
06 13.12 СЗ 2 2000 м дым ясно +17.0 +4.3 43 +18 +26 1019.7 1016.2
09 13.12 С 2 4000 м дым ясно +24.0 +6.8 33 +24 +32 комфорт 1017.3 1000.0
12 13.12 С 2 4000 м дым ясно +21.0 +7.5 42 +23 +23 комфорт 1016.3 994.8 +24.5
15 13.12 С 1 2000 м дым ясно +17.0 +5.7 47 +18 +18 1017.5 1000.0
18 13.12 С 1 2000 м дым ясно +13.0 +6.8 66 +14 +14 1018.7 1015.1
21 13.12 штиль 0 2000 м дым ясно +9.0 +5.7 80 +8 +8 1017.7 1018.0
00 14.12 штиль 0 1000 м дымка ясно +7.5 +5.3 86 +7 +7 1017.2 1013.6
03 14.12 штиль 0 500 м дымка ясно +8.5 +7.4 93 +8 +8 1021.3 1017.7 +6.5
06 14.12 С 2 1000 м дым ясно +14.0 +8.0 67 +14 +22 1022.6 1019.1
09 14.12 С 4 1000 м дым ясно +18.0 +8.3 53 +18 +23 1020.1 1020.0
12 14.12 штиль 0 50 км дым ?/? +14.6 +8.5 67 +14 +14 1019.0 1015.7 +21.5
15 14.12 СЗ 1 1000 м дым ясно +15.0 +9.2 68 +16 +16 1020.6 1016.0
18 14.12 СЗ 1 1000 м дым ясно +12.0 +9.0 82 +12 +12 1022.0 1018.5
21 14.12 штиль 0 500 м дым ясно +10.0 +7.9 87 +9 +9 1020.9 1021.0
00 15.12 штиль 0 500 м дымка ясно +7.0 +5.9 93 +6 +6 1019.6 1016.0
03 15.12 С 2 500 м дымка ясно +8.0 +6.9 93 +6 +6 1021.5 1017.9 +6.0
06 15.12 С 2 500 м туман ясно +11.5 +9.5 88 +10 +18 1024.7 1021.0
09 15.12 С 5 2000 м дым ясно +19.0 +9.6 54 +19 +23 1021.5 1022.0
12 15.12 С 2 2000 м дым ясно +20.0 +9.8 52 +22 +23 комфорт 1019.7 1016.3 +21.1

 

Местоположение метеостанции Nawabshah (Пакистан): широта 26.25 долгота 68.37 высота над уровнем моря 38 м.

В архиве по умолчанию представлена погода в Nawabshah за последнюю неделю. Архивные данные за месяц целиком и за предыдущие месяцы, начиная с января 2011 года, Вы можете получить, выбрав интересующий диапазон дат из раскрывающегося списка и нажав кнопку "Ввод!".

Внимание! Время в таблицах - всемирное. Для получения местного времени необходимо прибавить поправку, которая в Nawabshah равна 5 ч.

Смотрите также архив погоды в соседних городах и на ближайших метеорологических станциях:

Погода в Pad Idan (Пакистан) (71 км)
Погода в Hyderabad (Пакистан) (97 км)
Погода в Chhor (Пакистан) (163 км)
Погода в Rohri (Пакистан) (166 км)
Погода в Badin (Пакистан) (188 км)
Погода в Karachi (Пакистан) (195 км)
Погода в Jacobabad (Пакистан) (228 км)
Погода в Khuzdar (Пакистан) (246 км)
Погода в Jaisalmer (Rajasthan, Индия) (264 км)
Погода в Barmer (Rajasthan, Индия) (306 км)

Пояснения к столбцам:

Ветер - указаны скорость ветра в м/с - средняя за 10 мин, порывы в срок и между сроками (в фигурных скобках) и направление, откуда дует ветер: С - северный, СВ - северо-восточный, В - восточный, ЮВ - юго-восточный, Ю - южный, ЮЗ - юго-западный, З - западный, СЗ - северо-западный.
Видимость - горизонтальная дальность видимости в метрах или километрах. При видимости от 1 до 10 км при отсутствии осадков обычно наблюдается дымка, при ухудшении видимости до 1 км и менее - туман. В сухую погоду видимость может ухудшаться дымом, пылью или мглою.
Явления - указаны атмосферные явления, наблюдавшиеся в срок или в последний час перед сроком; фигурными скобками обозначены явления, наблюдавшиеся между сроками (за 1-3 часа до срока); квадратными скобками обозначены град или гололедные отложения с указанием их диаметра в мм.
Облачность - указаны через наклонную черту общая и нижняя облачность в баллах и высота нижней границы облаков в метрах; квадратными скобками обозначены формы облаков: Ci - перистые, Cs - перисто-слоистые, Cc - перисто-кучевые, Ac - высококучевые, As - высокослоистые, Sc - слоисто-кучевые, Ns - слоисто-дождевые, Cu - кучевые, Cb - кучево-дождевые. Подробнее классификацию облаков см. в Атласе облаков (PDF).
T - Температура воздуха - температура, измеренная на высоте 2 м над землей.
Td - Температура точки росы - температура, при понижении до которой содержащийся в воздухе водяной пар достигнет насыщения.
f - Относительная влажность воздуха - влажноcть воздуха, измеренная на высоте 2 м над землей.
Te - Эффективная температура - температура, которую ощущает одетый по сезону человек в тени. Характеристика душности погоды. При расчете учитывается влияние влажности воздуха и скорости ветра на теплоощущения человека.
Tes - Эффективная температура на солнце - температура, которую ощущает человек, с поправкой на солнечный нагрев. Характеристика знойности погоды. Зависит от высоты солнца над горизонтом, облачности и скорости ветра. Ночью, в пасмурную погоду, а также при ветре 12 м/с и более поправка равна нулю.
P - Атмосферное давление - приведенное к уровню моря атмосферное давление.
Po - Атмосферное давление - измеренное на уровне метеостанции атмосферное давление.
Tmin - Минимальная температура - минимум температуры воздуха на высоте 2 м над землей.
Tmax - Максимальная температура - максимум температуры воздуха на высоте 2 м над землей.
R - Количество осадков - Количество выпавших осадков за период времени, мм. При наведении курсора мыши на число - период времени, за который выпало указанное количество осадков.
R24 - Количество осадков - Количество выпавших осадков за 24 часа, мм.
S - Снежный покров - Высота снежного покрова, см. При наведении курсора мыши на число - состояние снежного покрова и степень покрытия местности в баллах.